Location: Beaver Meadows
(40.3729°N, 105.6140°W)
Time: 01:23:30
(UTC-06:00)

Iridium 67 - Visible Passes

Search period start: 31 July 2014 00:00
Search period end: 10 August 2014 00:00
Orbit: 776 x 779 km, 86.4° (Epoch: 30 July)

Date Brightness Start Highest point End Pass type
(mag) Time Alt. Az. Time Alt. Az. Time Alt. Az.
31 Jul 6.2 00:49:31 52° NNE 00:49:31 52° NNE 00:53:26 10° N visible
31 Jul 7.9 02:29:59 11° WNW 02:29:59 11° WNW 02:31:08 10° NW visible
01 Aug 6.6 00:16:06 36° NE 00:16:06 36° NE 00:19:42 10° NNE visible
01 Aug 7.4 01:56:34 20° WNW 01:56:34 20° WNW 01:59:36 10° NNW visible
01 Aug 7.2 23:42:40 22° ENE 23:42:40 22° ENE 23:45:33 10° NNE visible
02 Aug 6.8 01:23:08 33° NW 01:23:08 33° NW 01:26:47 10° NNW visible
02 Aug 7.8 23:09:15 12° ENE 23:09:15 12° ENE 23:10:30 10° NE visible
03 Aug 6.3 00:49:43 48° NNW 00:49:43 48° NNW 00:53:32 10° N visible
04 Aug 6.4 00:16:17 44° NNE 00:16:17 44° NNE 00:19:58 10° N visible
04 Aug 7.8 01:56:45 14° WNW 01:56:45 14° WNW 01:58:50 10° NW visible
04 Aug 6.9 23:42:50 29° NE 23:42:50 29° NE 23:46:05 10° NNE visible
05 Aug 7.3 01:23:18 24° WNW 01:23:18 24° WNW 01:26:31 10° NNW visible
05 Aug 7.4 23:09:23 17° ENE 23:09:23 17° ENE 23:11:42 10° NE visible
06 Aug 6.7 00:49:52 38° NW 00:49:52 38° NW 00:53:30 10° N visible
07 Aug 6.3 00:16:24 48° N 00:16:24 48° N 00:20:07 10° N visible
07 Aug 6.6 23:42:57 37° NE 23:42:57 37° NE 23:46:26 10° NNE visible
08 Aug 7.6 01:23:25 18° WNW 01:23:25 18° WNW 01:26:01 10° NNW visible
08 Aug 7.1 23:09:29 24° ENE 23:09:29 24° ENE 23:12:23 10° NNE visible
09 Aug 7.1 00:49:57 29° NW 00:49:57 29° NW 00:53:21 10° NNW visible
09 Aug 7.6 22:36:01 14° ENE 22:36:01 14° ENE 22:37:38 10° NE visible
